Weather History for Lufkin, TX

Change the Weather History Date:

Wednesday, December 4, 2013

  Actual Average Record
Temperature  
Mean Temperature 72 °F 52 °F  
Max Temperature 79 °F 63 °F 89 °F (1910)
Min Temperature 64 °F 41 °F 20 °F (1929)
Degree Days  
Heating Degree Days 0 13  
Month to date heating degree days 7 51  
Since 1 July heating degree days 363 358  
Cooling Degree Days 7 1  
Month to date cooling degree days 8 4  
Year to date cooling degree days 2849 2587  
Growing Degree Days 22 (Base 50)    
Moisture  
Dew Point 65 °F    
Average Humidity 80    
Maximum Humidity 97    
Minimum Humidity 62    
Precipitation  
Precipitation 0.00 in 0.15 in 1.45 in (1913)
Month to date precipitation 0.00 0.62  
Year to date precipitation 40.28 45.13  
Snow  
Snow 0.00 in - - ()
Month to date snowfall 0.0  
Since 1 July snowfall 0.0  
Snow Depth 0.00 in    
Sea Level Pressure  
Sea Level Pressure 29.75 in    
Wind  
Wind Speed 7 mph (SSE)    
Max Wind Speed 17 mph    
Max Gust Speed 23 mph    
Visibility 6 miles    
Events      
T = Trace of Precipitation, MM = Missing Value Source: NWS Daily Summary

Daily Weather History Graph

Daily Weather History Graph

Search for Another Location

Airport:

Trip Planner

Search our weather history database for the weather conditions in past years. The results will help you decide how hot, cold, wet, or windy it might be!

Date:

Astronomy

Dec. 04, 2013 Rise Set
Actual Time 7:02 AM CST 5:16 PM CST
Civil Twilight 6:36 AM CST 5:42 PM CST
Nautical Twilight 6:06 AM CST 6:12 PM CST
Astronomical Twilight 5:36 AM CST 6:42 PM CST
Moon 8:33 AM CST (12/4) 7:24 PM CST (12/4)
Length of Visible Light 11h 06m
Length of Day
10h 13m
Waxing Crescent, 4% of the Moon is Illuminated
Dec 4
Waxing Crescent
Dec 9
First Quarter
Dec 17
Full
Dec 25
Last Quarter
Jan 1
New

Hourly Weather History & Observations

Time (CST) Temp. Dew Point Humidity Pressure Visibility Wind Dir Wind Speed Gust Speed Precip Events Conditions
12:19 AM 64.4 °F 62.6 °F 94% 29.70 in 6.0 mi South 6.9 mph - N/A   Mostly Cloudy
12:53 AM 64.9 °F 63.0 °F 93% 29.70 in 6.0 mi South 5.8 mph - N/A   Overcast
1:53 AM 66.0 °F 63.0 °F 90% 29.70 in 7.0 mi South 4.6 mph - N/A   Overcast
2:53 AM 64.0 °F 63.0 °F 96% 29.70 in 5.0 mi SSE 3.5 mph - N/A   Overcast
3:53 AM 64.0 °F 63.0 °F 96% 29.70 in 4.0 mi SSE 4.6 mph - N/A   Overcast
4:53 AM 64.0 °F 63.0 °F 96% 29.71 in 5.0 mi SSE 4.6 mph - N/A   Overcast
5:53 AM 64.0 °F 63.0 °F 96% 29.73 in 4.0 mi SE 4.6 mph - N/A   Overcast
6:37 AM 64.4 °F 62.6 °F 94% 29.76 in 4.0 mi SE 3.5 mph - N/A   Overcast
6:53 AM 64.0 °F 63.0 °F 96% 29.75 in 4.0 mi SSE 4.6 mph - N/A   Overcast
7:53 AM 66.9 °F 64.0 °F 90% 29.77 in 7.0 mi South 6.9 mph - N/A   Overcast
8:34 AM 68.0 °F 64.4 °F 88% 29.79 in 8.0 mi South 6.9 mph - N/A   Scattered Clouds
8:53 AM 69.1 °F 64.9 °F 87% 29.79 in 8.0 mi South 8.1 mph - N/A   Mostly Cloudy
9:53 AM 72.0 °F 64.0 °F 76% 29.81 in 8.0 mi South 16.1 mph 23.0 mph N/A   Mostly Cloudy
10:53 AM 75.0 °F 64.9 °F 71% 29.80 in 6.0 mi SSW 11.5 mph 21.9 mph N/A   Haze
11:53 AM 75.9 °F 64.9 °F 69% 29.78 in 6.0 mi South 13.8 mph 19.6 mph N/A   Haze
12:50 PM 77.0 °F 64.4 °F 65% 29.75 in 7.0 mi South 11.5 mph - N/A   Scattered Clouds
12:53 PM 77.0 °F 64.9 °F 66% 29.75 in 7.0 mi South 11.5 mph - N/A   Scattered Clouds
1:32 PM 77.0 °F 64.4 °F 65% 29.74 in 7.0 mi SSE 12.7 mph - N/A   Mostly Cloudy
1:44 PM 78.8 °F 64.4 °F 61% 29.74 in 7.0 mi South 15.0 mph 18.4 mph N/A   Scattered Clouds
1:53 PM 79.0 °F 64.9 °F 62% 29.72 in 7.0 mi South 10.4 mph 19.6 mph N/A   Partly Cloudy
2:53 PM 78.1 °F 64.9 °F 64% 29.72 in 6.0 mi SSE 12.7 mph 18.4 mph N/A   Haze
3:53 PM 75.9 °F 66.0 °F 71% 29.71 in 5.0 mi SSE 8.1 mph - N/A   Haze
4:53 PM 73.0 °F 66.0 °F 79% 29.73 in 5.0 mi South 6.9 mph - N/A   Haze
5:53 PM 71.1 °F 66.0 °F 84% 29.74 in 6.0 mi SSE 4.6 mph - N/A   Haze
6:34 PM 69.8 °F 66.2 °F 88% 29.76 in 5.0 mi SSE 5.8 mph - N/A   Overcast
6:53 PM 70.0 °F 66.9 °F 90% 29.76 in 5.0 mi SSE 5.8 mph - N/A   Overcast
7:07 PM 69.8 °F 66.2 °F 88% 29.77 in 5.0 mi SSE 5.8 mph - N/A   Mostly Cloudy
7:36 PM 69.8 °F 66.2 °F 88% 29.77 in 5.0 mi SSE 8.1 mph - N/A   Mostly Cloudy
7:53 PM 70.0 °F 66.9 °F 90% 29.77 in 5.0 mi SSE 5.8 mph - N/A   Overcast
8:53 PM 70.0 °F 68.0 °F 93% 29.79 in 5.0 mi South 8.1 mph - N/A   Overcast
9:53 PM 71.1 °F 69.1 °F 93% 29.80 in 5.0 mi South 5.8 mph - N/A   Overcast
10:53 PM 72.0 °F 69.1 °F 91% 29.80 in 5.0 mi South 5.8 mph - N/A   Overcast
11:53 PM 72.0 °F 68.0 °F 87% 29.81 in 5.0 mi South 4.6 mph - N/A   Overcast